Time,TemperatureF,DewpointF,PressureIn,WindDirection,WindDirectionDegrees,WindSpeedMPH,WindSpeedGustMPH,Humidity,HourlyPrecipIn,Conditions,Clouds,dailyrainin,SoftwareType,DateUTC
2013-05-08 00:14:00,29.4,23.0,30.25,ESE,120,0.0,0.0,76,0.00,,,0.00,weatherlink.com 1.10,2013-05-08 08:14:00,
2013-05-08 00:29:00,29.0,22.0,30.25,ESE,120,0.0,0.0,75,0.00,,,0.00,weatherlink.com 1.10,2013-05-08 08:29:00,
2013-05-08 00:44:00,28.4,22.0,30.25,ESE,120,0.0,0.0,78,0.00,,,0.00,weatherlink.com 1.10,2013-05-08 08:44:00,
2013-05-08 00:59:00,28.3,23.0,30.25,ESE,120,0.0,0.0,79,0.00,,,0.00,weatherlink.com 1.10,2013-05-08 08:59:00,
2013-05-08 01:14:00,28.0,23.0,30.25,ESE,120,0.0,0.0,81,0.00,,,0.00,weatherlink.com 1.10,2013-05-08 09:14:00,
2013-05-08 01:29:00,27.8,22.0,30.25,ESE,120,0.0,0.0,80,0.00,,,0.00,weatherlink.com 1.10,2013-05-08 09:29:00,
2013-05-08 01:44:00,27.7,23.0,30.26,ESE,120,0.0,0.0,81,0.00,,,0.00,weatherlink.com 1.10,2013-05-08 09:44:00,
2013-05-08 01:59:00,27.5,22.0,30.26,ESE,120,0.0,0.0,78,0.00,,,0.00,weatherlink.com 1.10,2013-05-08 09:59:00,
2013-05-08 02:14:00,27.7,21.0,30.26,ESE,120,0.0,0.0,76,0.00,,,0.00,weatherlink.com 1.10,2013-05-08 10:14:00,
2013-05-08 02:29:00,27.2,21.0,30.26,ESE,120,0.0,0.0,78,0.00,,,0.00,weatherlink.com 1.10,2013-05-08 10:29:00,
2013-05-08 02:44:00,26.7,21.0,30.26,ESE,120,0.0,0.0,78,0.00,,,0.00,weatherlink.com 1.10,2013-05-08 10:44:00,
2013-05-08 02:59:00,26.6,22.0,30.27,ESE,120,0.0,0.0,82,0.00,,,0.00,weatherlink.com 1.10,2013-05-08 10:59:00,
2013-05-08 03:14:00,26.3,21.0,30.26,ESE,120,0.0,0.0,80,0.00,,,0.00,weatherlink.com 1.10,2013-05-08 11:14:00,
2013-05-08 03:29:00,26.0,21.0,30.27,ESE,120,0.0,0.0,82,0.00,,,0.00,weatherlink.com 1.10,2013-05-08 11:29:00,
2013-05-08 03:44:00,25.7,21.0,30.26,ESE,120,0.0,0.0,83,0.00,,,0.00,weatherlink.com 1.10,2013-05-08 11:44:00,
2013-05-08 03:59:00,25.7,21.0,30.27,ESE,120,0.0,0.0,82,0.00,,,0.00,weatherlink.com 1.10,2013-05-08 11:59:00,
2013-05-08 04:14:00,25.4,21.0,30.26,ESE,120,0.0,0.0,82,0.00,,,0.00,weatherlink.com 1.10,2013-05-08 12:14:00,
2013-05-08 04:29:00,25.2,20.0,30.27,ESE,120,0.0,0.0,82,0.00,,,0.00,weatherlink.com 1.10,2013-05-08 12:29:00,
2013-05-08 04:44:00,25.1,20.0,30.27,ESE,120,0.0,0.0,82,0.00,,,0.00,weatherlink.com 1.10,2013-05-08 12:44:00,
2013-05-08 05:00:00,24.9,20.0,30.27,ESE,120,0.0,0.0,83,0.00,,,0.00,weatherlink.com 1.10,2013-05-08 13:00:00,
2013-05-08 05:15:00,24.9,20.0,30.27,ESE,120,0.0,0.0,81,0.00,,,0.00,weatherlink.com 1.10,2013-05-08 13:15:00,
2013-05-08 05:30:00,24.8,20.0,30.27,ESE,120,0.0,0.0,82,0.00,,,0.00,weatherlink.com 1.10,2013-05-08 13:30:00,
2013-05-08 05:45:00,24.6,20.0,30.27,ESE,120,0.0,0.0,81,0.00,,,0.00,weatherlink.com 1.10,2013-05-08 13:45:00,
2013-05-08 06:00:00,24.6,20.0,30.27,ESE,120,0.0,1.0,81,0.00,,,0.00,weatherlink.com 1.10,2013-05-08 14:00:00,
2013-05-08 06:15:00,24.6,20.0,30.28,East,91,0.0,1.0,82,0.00,,,0.00,weatherlink.com 1.10,2013-05-08 14:15:00,
2013-05-08 06:30:00,25.0,20.0,30.28,East,91,0.0,0.0,81,0.00,,,0.00,weatherlink.com 1.10,2013-05-08 14:30:00,
2013-05-08 06:45:00,24.9,20.0,30.28,East,91,0.0,0.0,82,0.00,,,0.00,weatherlink.com 1.10,2013-05-08 14:45:00,
2013-05-08 07:00:00,25.4,21.0,30.28,East,91,0.0,0.0,83,0.00,,,0.00,weatherlink.com 1.10,2013-05-08 15:00:00,
2013-05-08 07:15:00,26.3,22.0,30.28,East,91,0.0,0.0,82,0.00,,,0.00,weatherlink.com 1.10,2013-05-08 15:15:00,
2013-05-08 07:30:00,30.4,23.0,30.28,East,91,0.0,0.0,73,0.00,,,0.00,weatherlink.com 1.10,2013-05-08 15:30:00,
2013-05-08 07:45:00,32.6,23.0,30.28,SE,127,1.0,1.0,69,0.00,,,0.00,weatherlink.com 1.10,2013-05-08 15:45:00,
2013-05-08 08:00:00,33.3,20.0,30.28,SE,146,0.0,1.0,58,0.00,,,0.00,weatherlink.com 1.10,2013-05-08 16:00:00,
2013-05-08 08:15:00,34.9,21.0,30.28,East,96,0.0,1.0,57,0.00,,,0.00,weatherlink.com 1.10,2013-05-08 16:15:00,
2013-05-08 08:30:00,35.1,18.0,30.29,East,82,0.0,3.0,50,0.00,,,0.00,weatherlink.com 1.10,2013-05-08 16:30:00,
2013-05-08 08:45:00,35.5,17.0,30.29,South,169,0.0,2.0,48,0.00,,,0.00,weatherlink.com 1.10,2013-05-08 16:45:00,
2013-05-08 09:15:00,37.1,18.0,30.29,East,95,0.0,2.0,46,0.00,,,0.00,weatherlink.com 1.10,2013-05-08 17:15:00,
2013-05-08 09:30:00,37.7,17.0,30.28,SSE,155,2.0,2.0,43,0.00,,,0.00,weatherlink.com 1.10,2013-05-08 17:30:00,
2013-05-08 09:45:00,38.4,17.0,30.28,SE,134,0.0,3.0,42,0.00,,,0.00,weatherlink.com 1.10,2013-05-08 17:45:00,
2013-05-08 10:00:00,39.3,17.0,30.28,SSE,151,0.0,2.0,41,0.00,,,0.00,weatherlink.com 1.10,2013-05-08 18:00:00,
2013-05-08 10:15:00,40.3,19.0,30.28,SSE,152,1.0,2.0,42,0.00,,,0.00,weatherlink.com 1.10,2013-05-08 18:15:00,
2013-05-08 10:30:00,40.7,19.0,30.28,West,277,1.0,4.0,41,0.00,,,0.00,weatherlink.com 1.10,2013-05-08 18:30:00,
2013-05-08 10:45:00,41.8,18.0,30.29,SE,146,2.0,3.0,38,0.00,,,0.00,weatherlink.com 1.10,2013-05-08 18:45:00,
2013-05-08 11:00:00,41.7,18.0,30.28,SSE,166,2.0,2.0,38,0.00,,,0.00,weatherlink.com 1.10,2013-05-08 19:00:00,
2013-05-08 11:15:00,42.3,19.0,30.29,West,275,0.0,2.0,39,0.00,,,0.00,weatherlink.com 1.10,2013-05-08 19:15:00,
2013-05-08 11:30:00,42.9,18.0,30.28,ESE,119,1.0,3.0,37,0.00,,,0.00,weatherlink.com 1.10,2013-05-08 19:30:00,
2013-05-08 11:45:00,43.3,17.0,30.28,SE,134,2.0,3.0,35,0.00,,,0.00,weatherlink.com 1.10,2013-05-08 19:45:00,
2013-05-08 12:00:00,44.3,18.0,30.29,South,171,0.0,4.0,35,0.00,,,0.00,weatherlink.com 1.10,2013-05-08 20:00:00,
2013-05-08 12:16:00,45.2,18.0,30.28,ESE,118,2.0,3.0,34,0.00,,,0.00,weatherlink.com 1.10,2013-05-08 20:16:00,
2013-05-08 12:31:00,45.9,18.0,30.28,West,259,3.0,4.0,33,0.00,,,0.00,weatherlink.com 1.10,2013-05-08 20:31:00,
2013-05-08 12:46:00,45.7,18.0,30.28,SSE,150,0.0,5.0,33,0.00,,,0.00,weatherlink.com 1.10,2013-05-08 20:46:00,
2013-05-08 13:01:00,46.8,19.0,30.28,SE,134,2.0,4.0,33,0.00,,,0.00,weatherlink.com 1.10,2013-05-08 21:01:00,
2013-05-08 13:16:00,46.8,18.0,30.28,SE,146,2.0,7.0,32,0.00,,,0.00,weatherlink.com 1.10,2013-05-08 21:16:00,
2013-05-08 13:32:00,47.2,15.0,30.29,SE,124,4.0,8.0,27,0.00,,,0.00,weatherlink.com 1.10,2013-05-08 21:32:00,
2013-05-08 13:46:00,46.9,18.0,30.28,West,281,0.0,4.0,31,0.00,,,0.00,weatherlink.com 1.10,2013-05-08 21:46:00,
2013-05-08 14:01:00,47.9,15.0,30.29,West,264,1.0,4.0,27,0.00,,,0.00,weatherlink.com 1.10,2013-05-08 22:01:00,
2013-05-08 14:16:00,48.1,15.0,30.29,East,79,2.0,5.0,27,0.00,,,0.00,weatherlink.com 1.10,2013-05-08 22:16:00,
2013-05-08 14:31:00,48.4,16.0,30.29,WSW,252,1.0,6.0,27,0.00,,,0.00,weatherlink.com 1.10,2013-05-08 22:31:00,
2013-05-08 14:46:00,49.0,21.0,30.28,WSW,257,2.0,4.0,33,0.00,,,0.00,weatherlink.com 1.10,2013-05-08 22:46:00,
2013-05-08 15:02:00,49.0,18.0,30.29,SSE,152,0.0,8.0,29,0.00,,,0.00,weatherlink.com 1.10,2013-05-08 23:02:00,
2013-05-08 15:16:00,48.8,18.0,30.28,SW,221,0.0,6.0,29,0.00,,,0.00,weatherlink.com 1.10,2013-05-08 23:16:00,
2013-05-08 15:31:00,49.6,18.0,30.29,ESE,105,4.0,4.0,28,0.00,,,0.00,weatherlink.com 1.10,2013-05-08 23:31:00,
2013-05-08 15:46:00,49.9,19.0,30.29,SSW,199,4.0,6.0,29,0.00,,,0.00,weatherlink.com 1.10,2013-05-08 23:46:00,
2013-05-08 16:01:00,50.3,18.0,30.29,West,278,0.0,6.0,28,0.00,,,0.00,weatherlink.com 1.10,2013-05-09 00:01:00,
2013-05-08 16:16:00,50.0,20.0,30.28,SSE,165,0.0,3.0,30,0.00,,,0.00,weatherlink.com 1.10,2013-05-09 00:16:00,
2013-05-08 16:31:00,50.9,19.0,30.28,South,169,2.0,9.0,28,0.00,,,0.00,weatherlink.com 1.10,2013-05-09 00:31:00,
2013-05-08 16:46:00,50.2,18.0,30.29,WNW,290,1.0,5.0,28,0.00,,,0.00,weatherlink.com 1.10,2013-05-09 00:46:00,
2013-05-08 17:01:00,51.1,16.0,30.29,WNW,298,0.0,8.0,25,0.00,,,0.00,weatherlink.com 1.10,2013-05-09 01:01:00,
2013-05-08 17:16:00,50.8,16.0,30.29,West,269,0.0,4.0,25,0.00,,,0.00,weatherlink.com 1.10,2013-05-09 01:16:00,
2013-05-08 17:31:00,50.5,16.0,30.28,ENE,78,3.0,7.0,25,0.00,,,0.00,weatherlink.com 1.10,2013-05-09 01:31:00,
2013-05-08 17:46:00,50.3,16.0,30.29,ESE,121,2.0,6.0,26,0.00,,,0.00,weatherlink.com 1.10,2013-05-09 01:46:00,
2013-05-08 18:16:00,49.5,17.0,30.29,SSE,157,2.0,3.0,27,0.00,,,0.00,weatherlink.com 1.10,2013-05-09 02:16:00,
2013-05-08 18:31:00,48.8,15.0,30.29,SE,146,2.0,4.0,26,0.00,,,0.00,weatherlink.com 1.10,2013-05-09 02:31:00,
2013-05-08 18:46:00,48.6,17.0,30.29,SSE,162,0.0,4.0,28,0.00,,,0.00,weatherlink.com 1.10,2013-05-09 02:46:00,
2013-05-08 19:01:00,48.2,16.0,30.29,SSE,155,2.0,6.0,28,0.00,,,0.00,weatherlink.com 1.10,2013-05-09 03:01:00,
2013-05-08 19:16:00,48.3,16.0,30.29,West,269,1.0,2.0,28,0.00,,,0.00,weatherlink.com 1.10,2013-05-09 03:16:00,
2013-05-08 19:31:00,48.4,17.0,30.29,SSE,160,0.0,1.0,29,0.00,,,0.00,weatherlink.com 1.10,2013-05-09 03:31:00,
2013-05-08 19:46:00,47.1,18.0,30.29,NE,41,0.0,4.0,32,0.00,,,0.00,weatherlink.com 1.10,2013-05-09 03:46:00,
2013-05-08 20:01:00,46.4,18.0,30.29,WNW,302,0.0,2.0,32,0.00,,,0.00,weatherlink.com 1.10,2013-05-09 04:01:00,
2013-05-08 20:16:00,45.5,18.0,30.29,West,276,0.0,2.0,34,0.00,,,0.00,weatherlink.com 1.10,2013-05-09 04:16:00,
2013-05-08 20:31:00,44.7,17.0,30.29,ESE,117,0.0,2.0,33,0.00,,,0.00,weatherlink.com 1.10,2013-05-09 04:31:00,
2013-05-08 20:46:00,44.3,19.0,30.30,East,97,0.0,1.0,37,0.00,,,0.00,weatherlink.com 1.10,2013-05-09 04:46:00,
2013-05-08 21:01:00,43.5,22.0,30.30,North,352,0.0,2.0,43,0.00,,,0.00,weatherlink.com 1.10,2013-05-09 05:01:00,
2013-05-08 21:16:00,42.3,22.0,30.30,NW,305,0.0,0.0,44,0.00,,,0.00,weatherlink.com 1.10,2013-05-09 05:16:00,
2013-05-08 21:31:00,40.3,22.0,30.31,NNW,343,0.0,0.0,48,0.00,,,0.00,weatherlink.com 1.10,2013-05-09 05:31:00,
2013-05-08 21:46:00,38.5,23.0,30.31,NNW,343,0.0,0.0,55,0.00,,,0.00,weatherlink.com 1.10,2013-05-09 05:46:00,
2013-05-08 22:01:00,37.2,24.0,30.31,NNW,343,0.0,0.0,60,0.00,,,0.00,weatherlink.com 1.10,2013-05-09 06:01:00,
2013-05-08 22:16:00,36.3,25.0,30.31,NNE,24,0.0,0.0,65,0.00,,,0.00,weatherlink.com 1.10,2013-05-09 06:16:00,
2013-05-08 22:31:00,35.0,26.0,30.32,NNE,24,0.0,0.0,69,0.00,,,0.00,weatherlink.com 1.10,2013-05-09 06:31:00,
2013-05-08 22:46:00,33.9,26.0,30.32,NNE,24,0.0,0.0,72,0.00,,,0.00,weatherlink.com 1.10,2013-05-09 06:46:00,
2013-05-08 23:01:00,33.3,26.0,30.32,NNE,24,0.0,0.0,73,0.00,,,0.00,weatherlink.com 1.10,2013-05-09 07:01:00,
2013-05-08 23:16:00,32.8,25.0,30.33,NE,48,0.0,0.0,74,0.00,,,0.00,weatherlink.com 1.10,2013-05-09 07:16:00,
2013-05-08 23:31:00,32.5,25.0,30.33,NE,48,0.0,0.0,75,0.00,,,0.00,weatherlink.com 1.10,2013-05-09 07:31:00,
2013-05-08 23:46:00,31.9,25.0,30.34,NE,48,0.0,0.0,77,0.00,,,0.00,weatherlink.com 1.10,2013-05-09 07:46:00,